{"data":{"norad_id":57753,"intl_designator":"2023-131X","name":"STARLINK-30343","alt_names":[],"object_type":"PAYLOAD","status":"ACTIVE","operator":null,"country":"US","launch_date":"2023-09-01","launch_site_code":"AFETR","launch_vehicle":null,"mission":null,"orbit_class":"UNKNOWN","rcs_meters":null,"size_class":null,"mass_kg":null,"dimensions":null,"purposes":["comms"],"wikipedia_slug":null,"has_3d_model":false,"image_url":null,"decayed_at":null,"tle_current":{"epoch":"2026-05-24T22:54:45.794016Z","epoch_age_seconds":79152,"freshness":"FRESH","line1":"1 57753U 23131X   26144.95469669  .00001322  00000+0  57546-4 0  9996","line2":"2 57753  43.0043 109.1124 0001262 271.0970  88.9737 15.27576083151494","mean_motion":15.27576083,"eccentricity":0.0001262,"inclination_deg":43.0043,"raan_deg":109.1124,"arg_perigee_deg":271.097,"mean_anomaly_deg":88.9737,"bstar":5.7546e-5,"rev_number":15149,"period_min":94.266990431795,"perigee_km":482.19494180634,"apogee_km":483.92670813736,"semimajor_km":6861.1978249718,"source":"CELESTRAK","updated_at":"2026-05-25T13:38:18.403194Z"}}}